• In Romania
  • List of Countries
  • For 7 days
  • Water Temperature
  • Satellite Maps
  • Weather Map
  • Weather Widgets
  • user-avatar
    Login

    Hourly Weather Ischgl

    Today, 18 August, Friday

    Time Temperature Precipitation Wind Pressure Humidity
    00:00 +8°C° 0 mm 1 mps 579 mmHg 89%
    01:00 +8°C° 0 mm 2 mps 579 mmHg 90%
    02:00 +9°C° 0 mm 1 mps 579 mmHg 90%
    03:00 +9°C° 0 mm 1 mps 579 mmHg 91%
    04:00 +8°C° 0 mm 1 mps 579 mmHg 91%
    05:00 +9°C° 0 mm 1 mps 580 mmHg 90%
    06:00 +10°C° 0 mm 1 mps 580 mmHg 88%
    07:00 +10°C° 0 mm 2 mps 581 mmHg 84%
    08:00 +13°C° 0 mm 2 mps 581 mmHg 76%
    09:00 +15°C° 0 mm 2 mps 582 mmHg 68%
    10:00 +17°C° 0 mm 2 mps 582 mmHg 59%
    11:00 +17°C° 0.1 mm 2 mps 582 mmHg 58%
    12:00 +18°C° 0.1 mm 2 mps 582 mmHg 56%
    13:00 +18°C° 0.1 mm 2 mps 582 mmHg 55%
    14:00 +18°C° 0.6 mm 2 mps 582 mmHg 59%
    15:00 +17°C° 0.6 mm 2 mps 581 mmHg 63%
    16:00 +17°C° 0.6 mm 2 mps 581 mmHg 67%
    17:00 +15°C° 1.3 mm 2 mps 580 mmHg 74%
    18:00 +14°C° 1.3 mm 2 mps 579 mmHg 81%
    19:00 +12°C° 1.3 mm 2 mps 579 mmHg 88%
    20:00 +10°C° 0.7 mm 2 mps 579 mmHg 90%
    21:00 +9°C° 0.7 mm 2 mps 578 mmHg 93%
    22:00 +9°C° 0.7 mm 2 mps 578 mmHg 95%
    23:00 +8°C° 2.9 mm 2 mps 578 mmHg 96%

    Tomorrow, 19 August, Saturday

    Time Temperature Precipitation Wind Pressure Humidity
    00:00 +8°C° 2.9 mm 2 mps 578 mmHg 96%
    01:00 +8°C° 2.9 mm 2 mps 578 mmHg 97%
    02:00 +7°C° 4.8 mm 2 mps 577 mmHg 97%
    03:00 +8°C° 4.8 mm 1 mps 577 mmHg 97%
    04:00 +7°C° 4.8 mm 1 mps 576 mmHg 97%
    05:00 +7°C° 1.7 mm 1 mps 577 mmHg 97%
    06:00 +7°C° 1.7 mm 1 mps 577 mmHg 96%
    07:00 +7°C° 1.7 mm 1 mps 577 mmHg 96%
    08:00 +7°C° 1.5 mm 1 mps 577 mmHg 95%
    09:00 +6°C° 1.5 mm 2 mps 577 mmHg 95%
    10:00 +6°C° 1.5 mm 2 mps 577 mmHg 94%
    11:00 +6°C° 1.1 mm 2 mps 577 mmHg 94%
    12:00 +6°C° 1.1 mm 2 mps 577 mmHg 93%
    13:00 +6°C° 1.1 mm 2 mps 577 mmHg 92%
    14:00 +6°C° 0.6 mm 2 mps 577 mmHg 90%
    15:00 +6°C° 0.6 mm 2 mps 577 mmHg 87%
    16:00 +7°C° 0.6 mm 2 mps 578 mmHg 84%
    17:00 +6°C° 0.2 mm 2 mps 578 mmHg 86%
    18:00 +5°C° 0.2 mm 2 mps 577 mmHg 88%
    19:00 +5°C° 0.2 mm 2 mps 577 mmHg 90%
    20:00 +4°C° 0.1 mm 2 mps 577 mmHg 91%
    21:00 +3°C° 0.1 mm 2 mps 577 mmHg 93%
    22:00 +2°C° 0.1 mm 2 mps 577 mmHg 95%
    23:00 +2°C° 0 mm 2 mps 577 mmHg 95%

    Day after tomorrow, 20 August, Sunday

    Time Temperature Precipitation Wind Pressure Humidity
    00:00 +2°C° 0 mm 2 mps 577 mmHg 95%
    01:00 +1°C° 0 mm 2 mps 577 mmHg 95%
    02:00 +1°C° 0 mm 2 mps 577 mmHg 95%
    03:00 +1°C° 0 mm 2 mps 577 mmHg 95%
    04:00 +1°C° 0 mm 2 mps 577 mmHg 95%
    05:00 +1°C° 0 mm 2 mps 577 mmHg 93%
    06:00 +2°C° 0 mm 2 mps 577 mmHg 91%
    07:00 +2°C° 0 mm 2 mps 578 mmHg 88%
    08:00 +4°C° 0 mm 2 mps 578 mmHg 79%
    09:00 +5°C° 0 mm 2 mps 579 mmHg 69%
    10:00 +7°C° 0 mm 2 mps 580 mmHg 59%
    11:00 +8°C° 0 mm 2 mps 580 mmHg 54%
    12:00 +9°C° 0 mm 2 mps 581 mmHg 48%
    13:00 +10°C° 0 mm 2 mps 581 mmHg 43%
    14:00 +10°C° 0 mm 2 mps 581 mmHg 43%
    15:00 +10°C° 0 mm 3 mps 581 mmHg 44%
    16:00 +10°C° 0 mm 3 mps 581 mmHg 45%
    17:00 +8°C° 0 mm 2 mps 580 mmHg 55%
    18:00 +6°C° 0 mm 2 mps 579 mmHg 65%
    19:00 +5°C° 0 mm 2 mps 579 mmHg 75%
    20:00 +4°C° 0 mm 2 mps 578 mmHg 80%
    21:00 +4°C° 0 mm 1 mps 578 mmHg 85%
    22:00 +2°C° 0 mm 1 mps 578 mmHg 89%
    23:00 +2°C° 0 mm 1 mps 578 mmHg 89%

    21 August, Monday

    Time Temperature Precipitation Wind Pressure Humidity
    00:00 +2°C° 0 mm 1 mps 577 mmHg 89%
    01:00 +1°C° 0 mm 1 mps 577 mmHg 88%
    02:00 +1°C° 0 mm 1 mps 577 mmHg 85%
    03:00 +1°C° 0 mm 1 mps 577 mmHg 82%
    04:00 +1°C° 0 mm 1 mps 577 mmHg 79%
    05:00 +2°C° 0 mm 1 mps 577 mmHg 73%
    06:00 +3°C° 0 mm 1 mps 578 mmHg 67%
    07:00 +5°C° 0 mm 1 mps 579 mmHg 61%
    08:00 +7°C° 0 mm 1 mps 580 mmHg 52%
    09:00 +8°C° 0 mm 2 mps 581 mmHg 44%
    10:00 +10°C° 0 mm 2 mps 582 mmHg 35%
    11:00 +12°C° 0 mm 2 mps 582 mmHg 35%
    12:00 +13°C° 0 mm 2 mps 582 mmHg 35%
    13:00 +13°C° 0 mm 2 mps 582 mmHg 35%
    14:00 +13°C° 0 mm 2 mps 582 mmHg 38%
    15:00 +13°C° 0 mm 2 mps 582 mmHg 41%
    16:00 +12°C° 0 mm 3 mps 581 mmHg 43%
    17:00 +10°C° 0 mm 2 mps 581 mmHg 54%
    18:00 +8°C° 0 mm 2 mps 580 mmHg 65%
    19:00 +6°C° 0 mm 2 mps 579 mmHg 75%
    20:00 +6°C° 0 mm 1 mps 579 mmHg 79%
    21:00 +5°C° 0 mm 1 mps 578 mmHg 83%
    22:00 +4°C° 0 mm 1 mps 578 mmHg 88%
    23:00 +3°C° 0 mm 1 mps 578 mmHg 87%

    22 August, Tuesday

    Time Temperature Precipitation Wind Pressure Humidity
    00:00 +3°C° 0 mm 1 mps 578 mmHg 86%
    01:00 +3°C° 0 mm 1 mps 577 mmHg 85%
    02:00 +3°C° 0 mm 1 mps 577 mmHg 84%
    03:00 +3°C° 0 mm 1 mps 577 mmHg 84%
    04:00 +3°C° 0 mm 1 mps 577 mmHg 83%
    05:00 +4°C° 0 mm 1 mps 578 mmHg 78%
    06:00 +6°C° 0 mm 1 mps 578 mmHg 74%
    07:00 +7°C° 0 mm 1 mps 579 mmHg 70%
    08:00 +9°C° 0 mm 1 mps 580 mmHg 62%
    09:00 +11°C° 0 mm 1 mps 581 mmHg 55%
    10:00 +14°C° 0 mm 1 mps 582 mmHg 47%
    11:00 +14°C° 0 mm 1 mps 582 mmHg 45%
    12:00 +15°C° 0 mm 1 mps 582 mmHg 43%
    13:00 +16°C° 0 mm 2 mps 582 mmHg 41%
    14:00 +16°C° 0 mm 2 mps 582 mmHg 43%
    15:00 +16°C° 0 mm 2 mps 582 mmHg 45%
    16:00 +16°C° 0 mm 2 mps 582 mmHg 47%
    17:00 +14°C° 0 mm 2 mps 581 mmHg 59%
    18:00 +10°C° 0 mm 2 mps 580 mmHg 70%
    19:00 +9°C° 0 mm 1 mps 579 mmHg 82%
    20:00 +8°C° 0 mm 1 mps 578 mmHg 85%
    21:00 +7°C° 0 mm 1 mps 578 mmHg 89%
    22:00 +6°C° 0 mm 1 mps 578 mmHg 93%
    23:00 +6°C° 0 mm 1 mps 578 mmHg 92%

    23 August, Wednesday

    Time Temperature Precipitation Wind Pressure Humidity
    00:00 +5°C° 0 mm 1 mps 577 mmHg 91%
    01:00 +5°C° 0 mm 1 mps 577 mmHg 90%
    02:00 +5°C° 0 mm 1 mps 577 mmHg 87%
    03:00 +5°C° 0 mm 1 mps 577 mmHg 85%
    04:00 +5°C° 0 mm 1 mps 577 mmHg 82%
    05:00 +6°C° 0 mm 1 mps 578 mmHg 77%
    06:00 +8°C° 0 mm 1 mps 578 mmHg 71%
    07:00 +9°C° 0 mm 1 mps 579 mmHg 66%
    08:00 +11°C° 0 mm 1 mps 580 mmHg 57%
    09:00 +13°C° 0 mm 1 mps 581 mmHg 49%
    10:00 +16°C° 0 mm 1 mps 582 mmHg 40%
    11:00 +16°C° 0 mm 1 mps 582 mmHg 38%
    12:00 +17°C° 0 mm 2 mps 583 mmHg 37%
    13:00 +18°C° 0 mm 2 mps 583 mmHg 35%
    14:00 +18°C° 0 mm 2 mps 583 mmHg 36%
    15:00 +17°C° 0 mm 2 mps 582 mmHg 38%
    16:00 +17°C° 0 mm 2 mps 582 mmHg 40%
    17:00 +15°C° 0 mm 2 mps 581 mmHg 50%
    18:00 +13°C° 0 mm 1 mps 580 mmHg 61%
    19:00 +10°C° 0 mm 1 mps 579 mmHg 72%
    20:00 +9°C° 0 mm 1 mps 579 mmHg 74%
    21:00 +8°C° 0 mm 1 mps 579 mmHg 76%
    22:00 +7°C° 0 mm 1 mps 579 mmHg 77%
    23:00 +7°C° 0 mm 1 mps 579 mmHg 74%
    Show more